[Iaude] MPEC A05: 2016 YZ10 [a=2.28,e=0.46,i=24.5,H=20.8]

mpec at si.edu mpec at si.edu
Sun Jan 1 11:57:29 EST 2017


M.P.E.C. 2017-A05                                Issued 2017 Jan. 1, 16:54 UT
 
     The Minor Planet Electronic Circulars contain information on unusual
         minor planets and routine data on comets.  They are published
    on behalf of Division F of the International Astronomical Union by the
          Minor Planet Center, Smithsonian Astrophysical Observatory,
                          Cambridge, MA 02138, U.S.A.

             Prepared using the Tamkin Foundation Computer Network

                              MPC at CFA.HARVARD.EDU
            URL http://www.minorplanetcenter.net/    ISSN 1523-6714


                                   2016 YZ10
 
Observations:
     K16Y10Z* C2016 12 29.15021 07 46 15.25 +19 48 56.7          18.9 rREA005G45
     K16Y10Z  C2016 12 29.15649 07 46 15.42 +19 49 34.6          19.3 rREA005G45
     K16Y10Z  C2016 12 29.15983 07 46 15.57 +19 49 55.0          19.7 rREA005G45
     K16Y10Z  C2016 12 29.16124 07 46 15.64 +19 50 03.4          19.3 rREA005G45
     K16Y10Z  C2016 12 29.16459 07 46 15.75 +19 50 23.7          19.5 rREA005G45
     K16Y10Z  C2016 12 29.16603 07 46 15.81 +19 50 32.1          19.5 rREA005G45
     K16Y10Z  C2016 12 29.16938 07 46 15.93 +19 50 51.8          19.3 rREA005G45
     K16Y10Z  C2016 12 29.17430 07 46 16.10 +19 51 21.6          19.4 rREA005G45
     K16Y10Z  C2016 12 29.17575 07 46 16.13 +19 51 30.6          19.0 rREA005G45
     K16Y10Z  C2016 12 31.52262 07 47 51.24 +23 43 29.9          19.3 RoEA005300
     K16Y10Z  C2016 12 31.52423 07 47 51.25 +23 43 39.0          19.1 RoEA005300
     K16Y10Z  C2016 12 31.52584 07 47 51.32 +23 43 48.9          19.1 RoEA005300
     K16Y10Z  C2016 12 31.52746 07 47 51.31 +23 43 58.4          19.1 RoEA005300
     K16Y10Z KC2016 12 31.91716 07 48 06.02 +24 22 15.0          18.8 RtEA005B49
     K16Y10Z KC2016 12 31.92740 07 48 06.32 +24 23 15.6          18.9 RtEA005B49
     K16Y10Z KC2016 12 31.93217 07 48 06.48 +24 23 44.6          19.0 RtEA005B49
     K16Y10Z  C2017 01 01.14669 07 48 12.38 +24 44 41.6          18.5 VSEA005033
     K16Y10Z  C2017 01 01.14898 07 48 12.45 +24 44 54.6          18.4 VSEA005033
     K16Y10Z  C2017 01 01.15128 07 48 12.52 +24 45 07.9          18.5 VSEA005033
     K16Y10Z  C2017 01 01.21553 07 48 14.66 +24 51 22.5          18.4 VSEA005033
     K16Y10Z  C2017 01 01.21784 07 48 14.75 +24 51 36.5          18.7 VSEA005033
     K16Y10Z  C2017 01 01.22013 07 48 14.83 +24 51 49.7          19.1 VSEA005033
     K16Y10Z  C2017 01 01.23951 07 48 15.51 +24 53 42.3          18.8 VSEA005033
     K16Y10Z  C2017 01 01.24181 07 48 15.60 +24 53 55.9          18.6 VSEA005033
     K16Y10Z  C2017 01 01.24411 07 48 15.67 +24 54 08.8          18.9 VSEA005033
 
Observer details:
033 Karl Schwarzschild Observatory, Tautenburg.  Observer B. Stecklum.  1.34-m
    f/3 Schmidt + CCD.
300 Bisei Spaceguard Center--BATTeRS.  Observers S. Okumura, T. Fujiwara.
    1.0-m f/3.0 reflector + CCD.
B49 Paus Observatory, Sabadell.  Observer J. Camarasa.  0.30-m f/4 Newtonian
    reflector + CCD.
G45 Space Surveillance Telescope, Atom Site.  Observers M. Blythe, R. Brungard,
    P. Festler, T. McVey, J. Paige, G. Spitz.  Measurers M. Cornell, A. Klein,
    J. Ruprecht, G. Ushomirsky, J. Varey, D. Woods.  3.5-m f/1 reflector + CCD.
 
Orbital elements:
2016 YZ10                                                Earth MOID = 0.2548 AU
Epoch 2017 Feb. 16.0 TT = JDT 2457800.5                 MPC
M  18.40547              (2000.0)            P               Q
n   0.28645656     Peri.  345.91843     +0.01640278     -0.91416897
a   2.2791008      Node   101.91792     +0.95275315     -0.10858065
e   0.4604067      Incl.   24.45155     +0.30330245     +0.39051932
P   3.44           H   20.8           G   0.15           U   7
Residuals in seconds of arc
161229 G45  0.6+  0.5-    161231 300  0.6+  0.3+    170101 033  0.0   0.2-
161229 G45  0.4-  0.2-    161231 300  0.0   0.2-    170101 033  0.0   0.2-
161229 G45  0.0   0.1+    161231 300  0.3+  0.1+    170101 033  0.1+  0.3+
161229 G45  0.2+  0.1+    161231 300  0.6-  0.1-    170101 033  0.1+  0.2+
161229 G45  0.0   0.3+    161231 B49  0.1-  0.1-    170101 033  0.1-  0.1-
161229 G45  0.1+  0.1+    161231 B49  0.2-  0.3-    170101 033  0.0   0.1+
161229 G45  0.0   0.3-    161231 B49  0.1+  0.4+    170101 033  0.2-  0.4-
161229 G45  0.1-  0.0     170101 033  0.1+  0.3+
161229 G45  0.5-  0.4+    170101 033  0.0   0.0

Ephemeris:
2016 YZ10                a,e,i = 2.28, 0.46, 24                  q = 1.2298
Date    TT    R. A. (2000) Decl.     Delta      r     Elong.  Phase     V
2016 12 02    07 17 13.7 -13 36 25   0.3626  1.2359   126.4    40.0    20.6
...
2016 12 17    07 35 35.9 +01 16 16   0.2892  1.2302   144.2    27.9    19.8
...
2016 12 25    07 43 03.5 +13 03 08   0.2693  1.2355   156.7    18.4    19.4
...
2016 12 31    07 47 29.1 +22 52 05   0.2671  1.2431   164.8    12.0    19.1
2017 01 01    07 48 07.9 +24 30 31   0.2679  1.2446   165.7    11.3    19.1
2017 01 02    07 48 45.3 +26 08 13   0.2690  1.2463   166.3    10.8    19.1
...
2017 01 08    07 52 04.1 +35 24 03   0.2823  1.2579   164.8    11.9    19.3
...
2017 01 16    07 55 44.4 +45 32 33   0.3161  1.2779   155.4    18.7    19.8
...
2017 01 31    08 03 15.8 +56 46 03   0.4140  1.3277   139.5    28.8    20.8

A. U. Tomatic                (C) Copyright 2017 MPC           M.P.E.C. 2017-A05




More information about the Iaude mailing list